[[{"header":{"parameterUnit":"m.s-1","parameterCategory":1,"la1":30.2991,"la2":30.254,"lo1":-89.0895,"lo2":-89.0444,"dy":0.0017,"dx":0.0017,"nx":28,"ny":28,"refTime":"2023-11-09T03:00:00:Z","depth":0,"parameterNumber":2,"parameterNumberName":"U-component_of_WINDS"},"data":[0,0,0,0,0,0,0,0,0,0,0,0,0,0,0,0,0,0,0,0,0,0,0,0,0,0,0,0,0,0,0,0,0,0,0,0,0,0,0,0,0,0,0,0,0,0,0,0,0,0,0,0,0,0,0,0,0,0,-0.3298,-0.3298,0,-0.324,-0.3239,-0.3239,-0.3232,-0.3232,-0.3233,-0.3233,-0.3171,-0.3169,-0.3167,0,0,0,0,0,0,0,0,0,0,0,0,0,-0.3403,-0.3401,-0.3298,-0.3298,-0.3297,-0.324,-0.3239,-0.3238,-0.3232,-0.3232,-0.3233,-0.3234,-0.3172,-0.3169,-0.3167,0,0,0,0,0,0,0,0,0,0,0,0,0,-0.3352,-0.34,-0.3299,-0.3287,-0.3285,-0.324,-0.3239,-0.3238,-0.3231,-0.3232,-0.3233,-0.3234,-0.3173,-0.3169,-0.3166,-0.3128,0,0,-0.3156,-0.3155,0,0,0,0,0,0,0,0,-0.3355,-0.3348,-0.3289,-0.3288,-0.3286,-0.3244,-0.3253,-0.3201,-0.3231,-0.3252,-0.3233,-0.3234,-0.3194,-0.3189,-0.3176,-0.3125,-0.3122,-0.3156,-0.3154,-0.3152,-0.3151,0,0,0,0,0,0,0,-0.3359,-0.3351,-0.3275,-0.3288,-0.3286,-0.3284,-0.3278,-0.3243,-0.3219,-0.325,-0.3249,-0.3243,-0.3194,-0.318,-0.3175,-0.3122,-0.3156,-0.3153,-0.3151,-0.315,-0.3036,-0.3035,0,0,0,0,0,0,-0.3365,-0.3354,-0.3277,-0.3273,-0.3323,-0.3281,-0.3274,-0.3256,-0.3219,-0.3214,-0.3242,-0.3243,-0.3185,-0.3179,-0.3173,-0.3125,-0.3152,-0.3149,-0.3147,-0.3037,-0.3036,-0.3035,0,0,0,0,0,0,-0.3367,-0.3358,-0.3279,-0.3313,-0.3303,-0.3279,-0.3259,-0.3255,-0.3241,-0.3213,-0.3209,-0.3232,-0.3185,-0.3177,-0.3139,-0.3123,-0.3148,-0.3145,-0.3039,-0.3037,-0.3036,-0.3031,0,0,0,0,0,0,-0.337,-0.3359,-0.3344,-0.3313,-0.3302,-0.3248,-0.3258,-0.3253,-0.3235,-0.3236,-0.3203,-0.3198,-0.3185,-0.3144,-0.3136,-0.3119,-0.3142,-0.304,-0.3038,-0.3036,-0.3032,-0.303,-0.3027,0,0,0,0,0,-0.3374,-0.3345,-0.3344,-0.3334,-0.3283,-0.3247,-0.324,-0.3226,-0.3234,-0.3219,-0.3202,-0.3199,-0.3127,-0.3141,-0.3131,-0.3113,-0.3041,-0.3038,-0.3036,-0.3034,-0.303,-0.3027,0,0,0,0,0,0,-0.3373,-0.334,-0.3339,-0.3299,-0.3276,-0.3246,-0.3226,-0.3223,-0.3197,-0.3198,-0.3182,-0.3174,-0.3137,-0.3121,-0.3137,-0.3074,-0.3084,-0.308,-0.3086,-0.3082,-0.3079,-0.3083,-0.3139,0,0,0,0,0,-0.3369,-0.3343,-0.3315,-0.3283,-0.3271,-0.3251,-0.3235,-0.3226,-0.3201,-0.3191,-0.3171,-0.3146,-0.3118,-0.3099,-0.3071,-0.3031,-0.3023,-0.3014,-0.3011,-0.3009,-0.3005,-0.2982,-0.2977,-0.3027,-0.3027,-0.3028,0,0,-0.3359,-0.3338,-0.3322,-0.3282,-0.3263,-0.3236,-0.3243,-0.3213,-0.3193,-0.3186,-0.315,-0.3134,-0.3105,-0.3066,-0.3047,-0.3051,-0.299,-0.3006,-0.3004,-0.3001,-0.2979,-0.2974,-0.297,-0.3026,-0.3026,-0.3026,0,0,-0.3327,-0.3309,-0.328,-0.3261,-0.3232,-0.3219,-0.3212,-0.3183,-0.3172,-0.3135,-0.313,-0.3105,-0.3057,-0.3037,-0.302,-0.2982,-0.2978,-0.2973,-0.2958,-0.2936,-0.2932,-0.2929,-0.2914,-0.291,-0.2969,-0.2969,-0.2969,0,-0.3318,-0.3277,-0.3265,-0.3236,-0.3218,-0.3213,-0.3183,-0.3165,-0.3129,-0.3117,-0.3123,-0.3062,-0.3042,-0.2998,-0.2989,-0.2976,-0.2967,-0.2976,-0.2934,-0.293,-0.2927,-0.2913,-0.2908,-0.2969,-0.2969,-0.2969,-0.2969,0,-0.3267,-0.3239,-0.3219,-0.3185,-0.3166,-0.3136,-0.3119,-0.3101,-0.3095,-0.3081,-0.3043,-0.302,-0.2987,-0.2976,-0.297,-0.2931,-0.2935,-0.2937,-0.2947,-0.2922,-0.2908,-0.2903,-0.2968,-0.2968,-0.2969,-0.2969,0,0,-0.3232,-0.3193,-0.3186,-0.317,-0.3139,-0.3117,-0.3087,-0.3057,-0.3041,-0.3016,-0.2991,-0.2951,-0.2953,-0.2934,-0.2926,-0.2906,-0.2877,-0.2911,-0.291,-0.2905,-0.2833,-0.2831,-0.2825,-0.2875,-0.2874,-0.2874,-0.2835,0,-0.3196,-0.3144,-0.3133,-0.3088,-0.3061,-0.3056,-0.303,-0.3008,-0.2995,-0.297,-0.2955,-0.2927,-0.2933,-0.2921,-0.2902,-0.2885,-0.2862,-0.2888,-0.2851,-0.285,-0.2857,-0.2818,-0.2815,-0.278,-0.283,-0.2829,-0.2829,0,-0.3146,-0.3122,-0.3074,-0.3047,-0.3036,-0.3013,-0.2984,-0.2961,-0.2936,-0.2927,-0.2907,-0.29,-0.2869,-0.2881,-0.2838,-0.2856,-0.284,-0.283,-0.2828,-0.2823,-0.2837,-0.2811,-0.2768,-0.2763,-0.282,-0.2821,-0.2822,0,-0.3125,-0.308,-0.3046,-0.3033,-0.3,-0.2984,-0.297,-0.2946,-0.2928,-0.2903,-0.2891,-0.2862,-0.2846,-0.2824,-0.281,-0.282,-0.2768,-0.2779,-0.2759,-0.2759,-0.2747,-0.2748,-0.2701,-0.2739,-0.2739,-0.2739,-0.2739,0,-0.3085,-0.3056,-0.3036,-0.3014,-0.2982,-0.2969,-0.2937,-0.2923,-0.2901,-0.2877,-0.2871,-0.2848,-0.2831,-0.2806,-0.2795,-0.2761,-0.2753,-0.2745,-0.2742,-0.2745,-0.2746,-0.2734,-0.2736,-0.2738,-0.2738,-0.2738,-0.2738,0,-0.3055,-0.304,-0.3003,-0.2975,-0.2968,-0.2945,-0.2921,-0.29,-0.2888,-0.2857,-0.2849,-0.2828,-0.2798,-0.2782,-0.2745,-0.2737,-0.2699,-0.2697,-0.2707,-0.2706,-0.2687,-0.2689,-0.2629,-0.2621,-0.2665,-0.2665,-0.2665,0,-0.303,-0.3008,-0.2979,-0.2962,-0.2948,-0.2921,-0.2904,-0.2891,-0.2872,-0.2843,-0.2825,-0.2795,-0.277,-0.2723,-0.2704,-0.2675,-0.2673,-0.2654,-0.2669,-0.2672,-0.2672,-0.2673,-0.2671,-0.2651,-0.2651,-0.2651,-0.265,0,-0.2987,-0.2981,-0.2956,-0.2929,-0.2908,-0.2886,-0.2864,-0.2851,-0.2834,-0.2813,-0.2783,-0.2764,-0.2726,-0.2697,-0.2667,-0.2651,-0.2648,-0.2646,-0.264,-0.2642,-0.2649,-0.2645,-0.2699,-0.2647,-0.2648,-0.2648,-0.2648,-0.2648,-0.2959,-0.2939,-0.2915,-0.2888,-0.287,-0.2849,-0.2829,-0.2813,-0.2788,-0.2757,-0.2751,-0.2719,-0.2695,-0.2654,-0.2638,-0.2613,-0.2616,-0.2608,-0.2605,-0.2603,-0.2602,-0.2654,-0.2607,-0.2607,-0.2607,-0.2608,-0.2608,0,-0.2915,-0.29,-0.2875,-0.2845,-0.2823,-0.2823,-0.2798,-0.278,-0.2752,-0.273,-0.2707,-0.2672,-0.2643,-0.2623,-0.2594,-0.2577,-0.2575,-0.257,-0.2571,-0.2567,-0.2601,-0.2609,-0.2572,-0.2572,-0.2572,-0.2572,-0.2572,-0.2572,-0.289,-0.2856,-0.2848,-0.2805,-0.279,-0.2759,-0.2745,-0.2726,-0.2709,-0.2671,-0.2647,-0.2634,-0.2613,-0.2582,-0.2556,-0.2551,-0.254,-0.2535,-0.2529,-0.2561,-0.2565,-0.2568,-0.2576,-0.2533,-0.2533,-0.2498,-0.2498,-0.2497]},{"header":{"parameterUnit":"m.s-1","parameterCategory":1,"la1":30.2991,"la2":30.254,"lo1":-89.0895,"lo2":-89.0444,"dy":0.0017,"dx":0.0017,"nx":28,"ny":28,"refTime":"2023-11-09T03:00:00:Z","depth":0,"parameterNumber":3,"parameterNumberName":"V-component_of_WINDS"},"data":[0,0,0,0,0,0,0,0,0,0,0,0,0,0,0,0,0,0,0,0,0,0,0,0,0,0,0,0,0,0,0,0,0,0,0,0,0,0,0,0,0,0,0,0,0,0,0,0,0,0,0,0,0,0,0,0,0,0,2.5746,2.5746,0,2.5808,2.5809,2.5809,2.5788,2.5786,2.5785,2.5784,2.5847,2.585,2.5853,0,0,0,0,0,0,0,0,0,0,0,0,0,2.5608,2.561,2.5746,2.5746,2.5747,2.5808,2.5809,2.581,2.5788,2.5786,2.5785,2.5783,2.5846,2.5849,2.5853,0,0,0,0,0,0,0,0,0,0,0,0,0,2.5669,2.5611,2.5746,2.5744,2.5744,2.5808,2.5809,2.581,2.5788,2.5786,2.5784,2.5782,2.5845,2.5849,2.5853,2.5922,0,0,2.5867,2.5869,0,0,0,0,0,0,0,0,2.5665,2.5674,2.5743,2.5744,2.5745,2.5788,2.5783,2.5847,2.5789,2.5772,2.5784,2.5781,2.5829,2.5834,2.5851,2.5925,2.5928,2.5867,2.587,2.5872,2.5873,0,0,0,0,0,0,0,2.5661,2.5671,2.577,2.5744,2.5745,2.574,2.5746,2.5795,2.5811,2.5773,2.5772,2.5779,2.5829,2.5846,2.5852,2.5929,2.5867,2.5871,2.5874,2.5876,2.6063,2.6065,0,0,0,0,0,0,2.5656,2.5667,2.5768,2.5772,2.5699,2.5744,2.5751,2.5776,2.581,2.5814,2.5781,2.5778,2.584,2.5847,2.5854,2.5937,2.5872,2.5876,2.5879,2.6061,2.6063,2.6066,0,0,0,0,0,0,2.5654,2.5666,2.5766,2.5719,2.5732,2.5749,2.5777,2.5778,2.5796,2.5816,2.5819,2.5796,2.5838,2.5848,2.5905,2.5939,2.5878,2.5882,2.6058,2.6061,2.6065,2.6104,0,0,0,0,0,0,2.565,2.5665,2.5691,2.572,2.5734,2.5816,2.5779,2.5781,2.5804,2.5801,2.5831,2.5834,2.5838,2.5899,2.591,2.5944,2.5886,2.6055,2.606,2.6064,2.61,2.6108,2.6116,0,0,0,0,0,2.5645,2.5699,2.5692,2.5705,2.5768,2.5818,2.5826,2.5829,2.5807,2.5833,2.5846,2.5833,2.5934,2.5905,2.5917,2.5953,2.6053,2.6058,2.6063,2.6096,2.6107,2.6115,0,0,0,0,0,0,2.5673,2.5703,2.5696,2.5761,2.5788,2.5815,2.5848,2.584,2.5873,2.5868,2.587,2.5877,2.5937,2.5951,2.5918,2.6022,2.599,2.5998,2.6011,2.6021,2.6029,2.6024,2.5889,0,0,0,0,0,2.5687,2.5726,2.575,2.5805,2.5819,2.5831,2.5853,2.5853,2.588,2.5891,2.5909,2.5935,2.5973,2.5997,2.6033,2.6101,2.6108,2.6132,2.614,2.6147,2.6154,2.6192,2.6203,2.6083,2.6083,2.6083,0,0,2.5716,2.5737,2.5761,2.5811,2.5832,2.5872,2.5841,2.5884,2.5914,2.5898,2.5954,2.5967,2.5997,2.6061,2.609,2.6074,2.6188,2.6153,2.6158,2.6162,2.6198,2.6209,2.6219,2.6087,2.6086,2.6085,0,0,2.5789,2.5809,2.5858,2.5879,2.5911,2.5919,2.593,2.5959,2.5968,2.6024,2.6012,2.6048,2.6112,2.6134,2.6154,2.6236,2.6226,2.6248,2.629,2.6327,2.6336,2.6345,2.6375,2.6385,2.6255,2.6255,2.6255,0,2.5821,2.5882,2.5884,2.5929,2.5952,2.5939,2.5989,2.6009,2.605,2.6066,2.6048,2.6129,2.6148,2.6217,2.6237,2.6253,2.6267,2.6245,2.6335,2.6343,2.6351,2.638,2.6391,2.6257,2.6257,2.6257,2.6256,0,2.592,2.5962,2.5998,2.6039,2.6065,2.6112,2.6121,2.6148,2.6146,2.6156,2.6213,2.6236,2.6276,2.6292,2.629,2.6361,2.6351,2.6334,2.6302,2.6365,2.6392,2.6403,2.6261,2.626,2.6259,2.6259,0,0,2.6013,2.6055,2.6068,2.6087,2.6121,2.6153,2.62,2.624,2.6263,2.6292,2.6331,2.6386,2.6371,2.6393,2.6393,2.6426,2.6491,2.6405,2.6406,2.6421,2.6571,2.6584,2.6597,2.6484,2.6486,2.6488,2.6569,0,2.609,2.6172,2.6176,2.6251,2.629,2.6279,2.632,2.6345,2.6356,2.639,2.6402,2.6441,2.6418,2.6431,2.6463,2.6476,2.6521,2.647,2.6521,2.6523,2.6514,2.6611,2.6625,2.67,2.6579,2.6581,2.6583,0,2.6191,2.6224,2.6303,2.6332,2.6348,2.6385,2.6422,2.6455,2.6484,2.6489,2.6515,2.651,2.6558,2.6524,2.659,2.6556,2.6577,2.6587,2.6589,2.6595,2.6557,2.6619,2.6724,2.6736,2.6599,2.6598,2.6597,0,2.6252,2.6315,2.6371,2.6388,2.6423,2.6449,2.6465,2.6491,2.6515,2.6547,2.6563,2.66,2.6621,2.665,2.6656,2.663,2.6722,2.6689,2.6728,2.6728,2.6749,2.6747,2.6859,2.6761,2.6761,2.6761,2.676,0,2.6337,2.6387,2.6399,2.6434,2.6489,2.6492,2.6546,2.656,2.6584,2.662,2.6613,2.6647,2.6653,2.6689,2.6694,2.6748,2.6757,2.6763,2.6764,2.6765,2.6764,2.6779,2.6774,2.6764,2.6763,2.6762,2.6762,0,2.6415,2.6425,2.6486,2.6514,2.6523,2.6562,2.6586,2.6619,2.6629,2.6676,2.6687,2.6702,2.6745,2.6753,2.6803,2.6806,2.6871,2.6867,2.6862,2.6862,2.6901,2.6898,2.7027,2.7044,2.6934,2.6935,2.6936,0,2.6469,2.6507,2.654,2.6564,2.6582,2.6621,2.6645,2.665,2.6676,2.6712,2.6741,2.6782,2.6816,2.6883,2.6899,2.6937,2.6934,2.6976,2.6939,2.6939,2.6935,2.6933,2.6937,2.6984,2.6985,2.6986,2.6986,0,2.6565,2.6569,2.6605,2.6643,2.6673,2.6703,2.6732,2.6752,2.6761,2.679,2.6834,2.686,2.6911,2.6952,2.699,2.7006,2.6998,2.6998,2.7009,2.701,2.7006,2.701,2.6882,2.6995,2.6994,2.6994,2.6993,2.6993,2.6633,2.6667,2.6695,2.6736,2.6758,2.6785,2.6818,2.6832,2.6868,2.6911,2.6911,2.6959,2.6987,2.7037,2.7056,2.7093,2.708,2.7096,2.71,2.7104,2.7108,2.7,2.71,2.71,2.7099,2.7099,2.7099,0,2.6729,2.6747,2.6785,2.6826,2.6858,2.6847,2.6879,2.6906,2.6948,2.6975,2.7008,2.7058,2.7098,2.7117,2.7157,2.7183,2.7181,2.7194,2.7192,2.7196,2.7117,2.7104,2.7195,2.7195,2.7195,2.7195,2.7195,2.7195,2.6783,2.6839,2.6846,2.6913,2.6931,2.6978,2.6996,2.7022,2.7043,2.71,2.7133,2.7145,2.7169,2.7211,2.7247,2.7252,2.7267,2.7282,2.7285,2.7211,2.7201,2.7192,2.718,2.7285,2.7285,2.736,2.7361,2.7362]}]]